Retour au catalogue

STARLINK-5371

ActifCommunicationsVLEO
NORAD 55489·PAYLOAD·🇺🇸 United States

Lancé Feb 2, 2023 depuis Cape Canaveral Space Force Station

Loading…

Prochains Passages (prochaines 24 heures)

TLE

FraisSource: CelesTrak SupGP

Époque: Sep 14, 2026, 21:21 UTC

1 55489C 23015AS  26257.89006944 -.00046669  00000+0 -16900-2 0  2571
2 55489  43.0041 351.3152 0001959 280.4212 310.3552 15.27606931    18

Suivez STARLINK-5371 en temps réel avec AllMySat

Download on the App Store